Regional Weather Roundup
Issued by NWS

Home | Current Version | Previous Version | Graphics & Text | Print | Product List | Glossary On
Versions: 1 2 3 4 5 6 7 8 9 10 11 12 13 14 15 16 17 18 19 20 21 22 23 24 25 26 27 28 29 30 31 32 33 34 35 36 37 38 39 40 41 42 43 44 45 46 47 48 49 50
103
ASUS45 KABQ 090910
RWRNM
NEW MEXICO REGIONAL WEATHER ROUNDUP
NATIONAL WEATHER SERVICE ALBUQUERQUE NM
200 AM MST FRI DEC 09 2016

NOTE: "FAIR" MEANS FEW OR NO CLOUDS BELOW 12,000 FEET AGL WITH NO
       SIGNIFICANT WEATHER OR OBSTRUCTIONS TO VISION.

      THIS PRODUCT IS RELEASED AS TWO VERSIONS.  ONE VERSION NEAR
      THE TOP OF THE HOUR CONTAINING PRELIMINARY DATA FROM ALBUQUERQUE
      AND OTHER STATIONS.  A FINAL VERSION WITH ADDITIONAL DATA IS
      ISSUED ABOUT 10 MINUTES AFTER THE HOUR.

NMZ501-503-504-510>518-091000-
NORTHWEST PLATEAU/NORTHCENTRAL MOUNTAINS

CITY           SKY/WX    TMP DP  RH WIND       PRES   REMARKS
FARMINGTON     FAIR      27  17  66 SE6       30.29S WCI  20
LOS ALAMOS     FAIR      24  15  68 CALM      30.31S
SANTA FE       FAIR      14  10  84 N5        30.32F WCI   6
TAOS           FAIR      16   3  57 E6        30.32R WCI   7
ANGEL FIRE     FAIR      28  15  57 W26G36    30.21F WCI  13

$$
NMZ402-403-502-505>509-091000-
WESTCENTRAL MOUNTAINS/SOUTHWEST MOUNTAINS

CITY           SKY/WX    TMP DP  RH WIND       PRES   REMARKS
GALLUP         FAIR      20  16  84 CALM      30.31R
GRANTS         FAIR      18  15  86 NW5       30.33S WCI  11
SILVER CITY    FAIR      23  21  92 NW5       30.38S WCI  17

$$
NMZ407-409-411-412-091000-
SOUTHERN DESERTS

CITY           SKY/WX    TMP DP  RH WIND       PRES   REMARKS
DEMING         FAIR      26  23  88 NE7       30.41R WCI  18
LAS CRUCES     FAIR      28  24  87 SE7       30.42S WCI  20
HOLLOMAN AFB   FAIR      21  16  79 CALM      30.48S
T OR C         FAIR      30  23  75 SW5       30.37S WCI  25

$$
NMZ519>523-091000-
CENTRAL VALLEYS/CENTRAL HIGHLANDS

CITY           SKY/WX    TMP DP  RH WIND       PRES   REMARKS
ALBUQUERQUE    FAIR      26  21  81 SE5       30.36S WCI  20
DOUBLE EAGLE   FAIR      20  15  78 CALM      30.35S
MORIARTY ARPT  FAIR      10   7  85 CALM      30.34F
CLINES CORNERS FAIR      21  18  88 SW13      30.29F WCI   9
BELEN          FAIR      24  21  88 CALM      30.36R
SOCORRO        FAIR      27  23  85 S8        30.37R WCI  18

$$
NMZ524>526-539-540-091000-
SOUTHCENTRAL MOUNTAINS

CITY           SKY/WX    TMP DP  RH WIND       PRES   REMARKS
RUIDOSO        FAIR      25  23  93 NW7       30.34S WCI  17

$$
NMZ527>531-091000-
NORTHEAST HIGHLANDS/NORTHEAST PLAINS

CITY           SKY/WX    TMP DP  RH WIND       PRES   REMARKS
LAS VEGAS      FAIR      19  16  88 S14       30.20F WCI   6
RATON          FOG       19  15  84 CALM      30.25R VSB 1
CLAYTON        CLOUDY    23  22  96 SW20      30.25F WCI   8

$$
NMZ532>537-091000-
EASTCENTRAL PLAINS

CITY           SKY/WX    TMP DP  RH WIND       PRES   REMARKS
TUCUMCARI      CLOUDY    29  22  75 SW16G25   30.34F WCI  17
CANNON AFB     CLOUDY    26  25  99 SW16      30.39S WCI  13
CLOVIS AIRPORT CLOUDY    27  18  69 SW17      30.39S WCI  14

$$
NMZ028-029-538-091000-
SOUTHEAST PLAINS

CITY           SKY/WX    TMP DP  RH WIND       PRES   REMARKS
ROSWELL        CLOUDY    28  22  78 S14       30.44F WCI  17
ARTESIA        CLOUDY    28  28 100 S10G18    30.47S WCI  19
CARLSBAD       NOT AVBL


$$




USA.gov is the U.S. government's official web portal to all federal, state and local government web resources and services.